TimeEST,TemperatureF,Dew PointF,Humidity,Sea Level PressureIn,VisibilityMPH,Wind Direction,Wind SpeedMPH,Gust SpeedMPH,PrecipitationIn,Events,Conditions,WindDirDegrees,DateUTC
12:53 AM,17.1,12.9,84,30.15,8.0,Calm,Calm,-,N/A,,Partly Cloudy,0,2013-01-16 05:53:00
1:53 AM,16.0,12.0,84,30.12,6.0,Calm,Calm,-,N/A,,Clear,0,2013-01-16 06:53:00
2:53 AM,16.0,12.0,84,30.11,8.0,Calm,Calm,-,N/A,,Overcast,0,2013-01-16 07:53:00
3:53 AM,15.1,12.0,88,30.09,8.0,Calm,Calm,-,N/A,,Clear,0,2013-01-16 08:53:00
4:53 AM,15.1,12.0,88,30.06,7.0,Calm,Calm,-,N/A,,Mostly Cloudy,0,2013-01-16 09:53:00
5:53 AM,18.0,14.0,84,30.04,7.0,South,5.8,-,N/A,,Scattered Clouds,190,2013-01-16 10:53:00
6:53 AM,17.1,12.9,84,30.01,7.0,South,5.8,-,N/A,,Partly Cloudy,180,2013-01-16 11:53:00
7:53 AM,17.1,12.9,84,29.99,7.0,SSW,4.6,-,N/A,,Partly Cloudy,200,2013-01-16 12:53:00
8:53 AM,19.9,15.1,81,29.98,8.0,SSW,6.9,-,N/A,,Clear,200,2013-01-16 13:53:00
9:53 AM,24.1,18.0,77,29.97,9.0,SW,11.5,-,N/A,,Clear,220,2013-01-16 14:53:00
10:53 AM,27.0,19.0,72,29.94,10.0,SSW,17.3,24.2,N/A,,Partly Cloudy,210,2013-01-16 15:53:00
11:53 AM,28.9,19.9,69,29.89,10.0,SSW,19.6,25.3,N/A,,Partly Cloudy,210,2013-01-16 16:53:00
12:53 PM,30.9,18.0,59,29.86,10.0,SW,18.4,26.5,N/A,,Partly Cloudy,220,2013-01-16 17:53:00
1:53 PM,33.1,17.1,52,29.83,10.0,SW,21.9,27.6,N/A,,Partly Cloudy,220,2013-01-16 18:53:00
2:53 PM,33.8,15.8,48,29.78,10.0,SW,17.3,26.5,N/A,,Scattered Clouds,220,2013-01-16 19:53:00
3:53 PM,33.1,15.1,48,29.82,10.0,SW,10.4,-,N/A,,Overcast,230,2013-01-16 20:53:00
4:53 PM,33.1,16.0,50,29.85,10.0,SW,11.5,24.2,N/A,,Overcast,230,2013-01-16 21:53:00
5:53 PM,33.1,18.0,54,29.86,10.0,WSW,15.0,-,N/A,,Overcast,240,2013-01-16 22:53:00
6:53 PM,33.1,19.9,59,29.88,10.0,WSW,11.5,-,N/A,,Overcast,250,2013-01-16 23:53:00
7:15 PM,33.8,21.2,60,29.86,10.0,WSW,23.0,27.6,N/A,,Overcast,250,2013-01-17 00:15:00
7:53 PM,32.0,25.0,75,29.90,10.0,WSW,16.1,-,N/A,,Overcast,250,2013-01-17 00:53:00
8:53 PM,32.0,26.1,79,29.92,10.0,WSW,12.7,-,N/A,,Overcast,250,2013-01-17 01:53:00
9:53 PM,32.0,26.1,79,29.94,9.0,WSW,11.5,-,0.00,Snow,Light Snow,240,2013-01-17 02:53:00
10:53 PM,33.1,27.0,78,29.95,7.0,West,15.0,-,0.00,Snow,Light Snow,260,2013-01-17 03:53:00
11:20 PM,33.8,26.6,75,29.93,8.0,WSW,13.8,-,0.00,,Overcast,250,2013-01-17 04:20:00
11:53 PM,33.1,27.0,78,29.98,8.0,West,10.4,-,0.00,,Overcast,260,2013-01-17 04:53:00